| time (UTC) | temp F | wind direction | speed MPH | gust MPH | rain 1hr in | rain 24hr in | rain mn in | humidity % | barometer mb |
| 20260831053557 | 77 | 157 | 3.0 | 6.0 | 0.00 | 0.00 | 0.00 | 68 | 1011.7 |
| 20260831053056 | 76 | 171 | 2.0 | 5.0 | 0.00 | 0.00 | 0.00 | 69 | 1011.6 |
| 20260831052556 | 76 | 159 | 2.0 | 4.0 | 0.00 | 0.00 | 0.00 | 71 | 1011.6 |
| 20260831052056 | 76 | 179 | 2.0 | 6.0 | 0.00 | 0.00 | 0.00 | 70 | 1011.6 |
| 20260831051557 | 76 | 182 | 2.0 | 6.0 | 0.00 | 0.00 | 0.00 | 70 | 1011.7 |
| 20260831051057 | 76 | 195 | 2.0 | 4.0 | 0.00 | 0.00 | 0.00 | 71 | 1011.6 |
| 20260831050056 | 75 | 173 | 2.0 | 4.0 | 0.00 | 0.00 | 0.00 | 73 | 1011.6 |
| 20260831045556 | 76 | 166 | 2.0 | 3.0 | 0.00 | 0.00 | 0.00 | 72 | 1011.6 |
| 20260831045056 | 76 | 175 | 1.0 | 4.0 | 0.00 | 0.00 | 0.00 | 71 | 1011.6 |
| 20260831044556 | 77 | 180 | 2.0 | 4.0 | 0.00 | 0.00 | 0.00 | 69 | 1011.5 |
| 20260831044057 | 78 | 220 | 1.0 | 4.0 | 0.00 | 0.00 | 0.00 | 68 | 1011.5 |
| 20260831043055 | 80 | 207 | 2.0 | 6.0 | 0.00 | 0.00 | 0.00 | 64 | 1011.4 |
| 20260831042556 | 81 | 166 | 3.0 | 9.0 | 0.00 | 0.00 | 0.00 | 61 | 1011.5 |
| 20260831040555 | 82 | 197 | 3.0 | 6.0 | 0.00 | 0.00 | 0.00 | 59 | 1011.5 |
| 20260831040055 | 82 | 182 | 5.0 | 9.0 | 0.00 | 0.00 | 0.00 | 59 | 1011.5 |
| 20260831035555 | 82 | 179 | 4.0 | 9.0 | 0.00 | 0.00 | 0.00 | 60 | 1011.4 |
| 20260831035054 | 81 | 159 | 4.0 | 7.0 | 0.00 | 0.00 | 0.00 | 60 | 1011.5 |
| 20260831034554 | 81 | 171 | 4.0 | 11.0 | 0.00 | 0.00 | 0.00 | 60 | 1011.4 |
| 20260831034056 | 81 | 130 | 4.0 | 11.0 | 0.00 | 0.00 | 0.00 | 60 | 1011.5 |
| 20260831033554 | 82 | 155 | 2.0 | 9.0 | 0.00 | 0.00 | 0.00 | 60 | 1011.4 |
| 20260831033054 | 82 | 154 | 3.0 | 9.0 | 0.00 | 0.00 | 0.00 | 60 | 1011.5 |
| 20260831032554 | 82 | 176 | 3.0 | 9.0 | 0.00 | 0.00 | 0.00 | 59 | 1011.4 |
| 20260831031054 | 82 | 173 | 4.0 | 9.0 | 0.00 | 0.00 | 0.00 | 58 | 1011.4 |
| 20260831030054 | 83 | 166 | 5.0 | 10.0 | 0.00 | 0.00 | 0.00 | 58 | 1011.4 |
| 20260831025053 | 82 | 149 | 4.0 | 10.0 | 0.00 | 0.00 | 0.00 | 58 | 1011.3 |
| 20260831024553 | 83 | 124 | 4.0 | 7.0 | 0.00 | 0.00 | 0.00 | 59 | 1011.3 |
| 20260831024054 | 83 | 135 | 4.0 | 7.0 | 0.00 | 0.00 | 0.00 | 58 | 1011.3 |
| 20260831023553 | 83 | 175 | 3.0 | 6.0 | 0.00 | 0.00 | 0.00 | 57 | 1011.2 |
| 20260831023052 | 83 | 134 | 3.0 | 7.0 | 0.00 | 0.00 | 0.00 | 56 | 1011.2 |
| 20260831022553 | 84 | 159 | 3.0 | 9.0 | 0.00 | 0.00 | 0.00 | 56 | 1011.2 |
| 20260831022053 | 83 | 202 | 3.0 | 10.0 | 0.00 | 0.00 | 0.00 | 56 | 1011.2 |
| 20260831021552 | 83 | 202 | 4.0 | 10.0 | 0.00 | 0.00 | 0.00 | 56 | 1011.1 |
| 20260831021052 | 84 | 154 | 3.0 | 6.0 | 0.00 | 0.00 | 0.00 | 56 | 1011.1 |
| 20260831020552 | 85 | 172 | 2.0 | 10.0 | 0.00 | 0.00 | 0.00 | 54 | 1011.0 |
| 20260831020052 | 85 | 171 | 4.0 | 11.0 | 0.00 | 0.00 | 0.00 | 53 | 1011.0 |
| 20260831015551 | 85 | 141 | 4.0 | 11.0 | 0.00 | 0.00 | 0.00 | 53 | 1010.9 |
| 20260831015051 | 85 | 141 | 4.0 | 9.0 | 0.00 | 0.00 | 0.00 | 53 | 1010.9 |
| 20260831014052 | 86 | 180 | 3.0 | 10.0 | 0.00 | 0.00 | 0.00 | 53 | 1010.6 |
| 20260831013552 | 86 | 144 | 4.0 | 10.0 | 0.00 | 0.00 | 0.00 | 52 | 1010.5 |
| 20260831012551 | 86 | 166 | 4.0 | 9.0 | 0.00 | 0.00 | 0.00 | 53 | 1010.4 |
| 20260831012051 | 87 | 164 | 4.0 | 9.0 | 0.00 | 0.00 | 0.00 | 52 | 1010.3 |
| 20260831011551 | 88 | 204 | 4.0 | 11.0 | 0.00 | 0.00 | 0.00 | 50 | 1010.3 |
| 20260831011051 | 89 | 144 | 5.0 | 11.0 | 0.00 | 0.00 | 0.00 | 49 | 1010.3 |
| 20260831010551 | 89 | 145 | 4.0 | 12.0 | 0.00 | 0.00 | 0.00 | 48 | 1010.2 |
| 20260831010050 | 89 | 200 | 5.0 | 12.0 | 0.00 | 0.00 | 0.00 | 48 | 1010.2 |
| 20260831005551 | 90 | 114 | 5.0 | 13.0 | 0.00 | 0.00 | 0.00 | 47 | 1010.3 |
| 20260831004051 | 90 | 182 | 6.0 | 12.0 | 0.00 | 0.00 | 0.00 | 47 | 1010.2 |
| 20260831003550 | 90 | 154 | 5.0 | 9.0 | 0.00 | 0.00 | 0.00 | 47 | 1010.1 |
| 20260831003050 | 91 | 172 | 4.0 | 10.0 | 0.00 | 0.00 | 0.00 | 48 | 1010.0 |
| 20260831002550 | 91 | 166 | 5.0 | 10.0 | 0.00 | 0.00 | 0.00 | 47 | 1010.0 |
| 20260831002049 | 91 | 175 | 5.0 | 10.0 | 0.00 | 0.00 | 0.00 | 48 | 1010.0 |
| 20260831001549 | 91 | 144 | 4.0 | 10.0 | 0.00 | 0.00 | 0.00 | 48 | 1010.1 |
| 20260831001049 | 92 | 197 | 5.0 | 11.0 | 0.00 | 0.00 | 0.00 | 46 | 1010.0 |
| 20260831000549 | 93 | 182 | 5.0 | 15.0 | 0.00 | 0.00 | 0.00 | 45 | 1009.9 |
| 20260831000050 | 94 | 186 | 5.0 | 15.0 | 0.00 | 0.00 | 0.00 | 45 | 1009.9 |
| 20260830235549 | 94 | 155 | 6.0 | 15.0 | 0.00 | 0.00 | 0.00 | 44 | 1009.8 |
| 20260830235049 | 95 | 178 | 6.0 | 16.0 | 0.00 | 0.00 | 0.00 | 42 | 1009.8 |
| 20260830233049 | 96 | 157 | 6.0 | 12.0 | 0.00 | 0.00 | 0.00 | 41 | 1009.7 |
| 20260830232549 | 96 | 145 | 7.0 | 16.0 | 0.00 | 0.00 | 0.00 | 41 | 1009.7 |
| 20260830232048 | 97 | 171 | 8.0 | 19.0 | 0.00 | 0.00 | 0.00 | 39 | 1009.7 |
| 20260830231550 | 97 | 182 | 10.0 | 19.0 | 0.00 | 0.00 | 0.00 | 39 | 1009.8 |
| 20260830231049 | 97 | 180 | 8.0 | 16.0 | 0.00 | 0.00 | 0.00 | 40 | 1009.7 |
| 20260830230048 | 98 | 140 | 11.0 | 19.0 | 0.00 | 0.00 | 0.00 | 39 | 1009.7 |
| 20260830225548 | 98 | 227 | 9.0 | 16.0 | 0.00 | 0.00 | 0.00 | 40 | 1009.7 |
| 20260830224047 | 98 | 138 | 9.0 | 18.0 | 0.00 | 0.00 | 0.00 | 39 | 1009.7 |
| 20260830223047 | 99 | 192 | 9.0 | 17.0 | 0.00 | 0.00 | 0.00 | 38 | 1009.6 |
| 20260830222047 | 99 | 166 | 7.0 | 20.0 | 0.00 | 0.00 | 0.00 | 39 | 1009.6 |
| 20260830221547 | 100 | 182 | 12.0 | 20.0 | 0.00 | 0.00 | 0.00 | 37 | 1009.6 |
| 20260830220547 | 100 | 162 | 12.0 | 21.0 | 0.00 | 0.00 | 0.00 | 37 | 1009.6 |
| 20260830220046 | 100 | 209 | 9.0 | 18.0 | 0.00 | 0.00 | 0.00 | 38 | 1009.7 |
| 20260830215547 | 100 | 207 | 8.0 | 19.0 | 0.00 | 0.00 | 0.00 | 38 | 1009.6 |
| 20260830214545 | 100 | 182 | 12.0 | 21.0 | 0.00 | 0.00 | 0.00 | 37 | 1009.8 |
| 20260830214046 | 100 | 151 | 9.0 | 20.0 | 0.00 | 0.00 | 0.00 | 37 | 1009.8 |
| 20260830213547 | 100 | 247 | 10.0 | 20.0 | 0.00 | 0.00 | 0.00 | 37 | 1009.8 |
| 20260830213045 | 100 | 157 | 10.0 | 22.0 | 0.00 | 0.00 | 0.00 | 38 | 1009.8 |
| 20260830212545 | 100 | 204 | 10.0 | 22.0 | 0.00 | 0.00 | 0.00 | 38 | 1009.9 |
| 20260830212045 | 100 | 161 | 9.0 | 20.0 | 0.00 | 0.00 | 0.00 | 39 | 1010.0 |
| 20260830211045 | 101 | 158 | 7.0 | 17.0 | 0.00 | 0.00 | 0.00 | 40 | 1010.0 |
| 20260830210545 | 100 | 165 | 8.0 | 17.0 | 0.00 | 0.00 | 0.00 | 41 | 1010.0 |
| 20260830205545 | 100 | 178 | 9.0 | 20.0 | 0.00 | 0.00 | 0.00 | 40 | 1010.2 |
| 20260830205044 | 100 | 173 | 9.0 | 19.0 | 0.00 | 0.00 | 0.00 | 40 | 1010.3 |
| 20260830204544 | 100 | 238 | 10.0 | 20.0 | 0.00 | 0.00 | 0.00 | 41 | 1010.4 |
| 20260830204044 | 100 | 230 | 9.0 | 20.0 | 0.00 | 0.00 | 0.00 | 42 | 1010.4 |
| 20260830203544 | 100 | 165 | 8.0 | 17.0 | 0.00 | 0.00 | 0.00 | 42 | 1010.5 |
| 20260830203044 | 100 | 179 | 8.0 | 19.0 | 0.00 | 0.00 | 0.00 | 42 | 1010.6 |
| 20260830202544 | 100 | 176 | 9.0 | 19.0 | 0.00 | 0.00 | 0.00 | 42 | 1010.5 |
| 20260830202044 | 100 | 173 | 10.0 | 17.0 | 0.00 | 0.00 | 0.00 | 43 | 1010.8 |
| 20260830201544 | 100 | 199 | 7.0 | 21.0 | 0.00 | 0.00 | 0.00 | 43 | 1010.8 |
| 20260830201044 | 100 | 204 | 11.0 | 21.0 | 0.00 | 0.00 | 0.00 | 41 | 1010.9 |
| 20260830200544 | 100 | 175 | 6.0 | 19.0 | 0.00 | 0.00 | 0.00 | 43 | 1010.9 |
| 20260830200044 | 99 | 203 | 11.0 | 19.0 | 0.00 | 0.00 | 0.00 | 43 | 1011.1 |
| 20260830195543 | 99 | 176 | 9.0 | 18.0 | 0.00 | 0.00 | 0.00 | 44 | 1011.1 |
| 20260830195043 | 99 | 182 | 9.0 | 16.0 | 0.00 | 0.00 | 0.00 | 44 | 1011.1 |
| 20260830194543 | 99 | 138 | 6.0 | 18.0 | 0.00 | 0.00 | 0.00 | 46 | 1011.2 |
| 20260830194043 | 98 | 210 | 10.0 | 19.0 | 0.00 | 0.00 | 0.00 | 43 | 1011.2 |
| 20260830193543 | 99 | 266 | 9.0 | 19.0 | 0.00 | 0.00 | 0.00 | 44 | 1011.3 |
| 20260830192543 | 99 | 186 | 8.0 | 24.0 | 0.00 | 0.00 | 0.00 | 44 | 1011.4 |
| 20260830192042 | 98 | 247 | 7.0 | 24.0 | 0.00 | 0.00 | 0.00 | 46 | 1011.3 |
| 20260830191043 | 97 | 173 | 13.0 | 27.0 | 0.00 | 0.00 | 0.00 | 44 | 1011.5 |
| 20260830190542 | 97 | 216 | 9.0 | 22.0 | 0.00 | 0.00 | 0.00 | 46 | 1011.5 |
| 20260830190042 | 97 | 189 | 9.0 | 21.0 | 0.00 | 0.00 | 0.00 | 45 | 1011.5 |
| 20260830185542 | 97 | 310 | 10.0 | 20.0 | 0.00 | 0.00 | 0.00 | 44 | 1011.7 |
| 20260830185042 | 97 | 195 | 10.0 | 20.0 | 0.00 | 0.00 | 0.00 | 45 | 1011.6 |
| 20260830184541 | 97 | 212 | 11.0 | 23.0 | 0.00 | 0.00 | 0.00 | 46 | 1011.7 |
| 20260830184041 | 96 | 140 | 11.0 | 23.0 | 0.00 | 0.00 | 0.00 | 46 | 1011.8 |
| 20260830183542 | 97 | 189 | 9.0 | 19.0 | 0.00 | 0.00 | 0.00 | 47 | 1011.9 |
| 20260830183042 | 96 | 0 | 9.0 | 19.0 | 0.00 | 0.00 | 0.00 | 45 | 1011.8 |
| 20260830181541 | 95 | 183 | 11.0 | 24.0 | 0.00 | 0.00 | 0.00 | 47 | 1012.0 |
| 20260830180541 | 95 | 216 | 10.0 | 19.0 | 0.00 | 0.00 | 0.00 | 48 | 1012.1 |
| 20260830180042 | 95 | 173 | 8.0 | 21.0 | 0.00 | 0.00 | 0.00 | 48 | 1012.1 |
| 20260830175541 | 95 | 233 | 11.0 | 21.0 | 0.00 | 0.00 | 0.00 | 48 | 1012.1 |
| 20260830175041 | 95 | 257 | 11.0 | 23.0 | 0.00 | 0.00 | 0.00 | 48 | 1012.2 |
| 20260830174540 | 94 | 169 | 11.0 | 23.0 | 0.00 | 0.00 | 0.00 | 48 | 1012.3 |
| 20260830174040 | 94 | 195 | 10.0 | 19.0 | 0.00 | 0.00 | 0.00 | 48 | 1012.2 |
| 20260830173540 | 94 | 197 | 9.0 | 17.0 | 0.00 | 0.00 | 0.00 | 49 | 1012.4 |
| 20260830172040 | 93 | 203 | 6.0 | 21.0 | 0.00 | 0.00 | 0.00 | 51 | 1012.6 |
| 20260830171540 | 93 | 195 | 9.0 | 21.0 | 0.00 | 0.00 | 0.00 | 52 | 1012.7 |
| 20260830171040 | 92 | 120 | 5.0 | 16.0 | 0.00 | 0.00 | 0.00 | 54 | 1012.7 |
| 20260830170040 | 91 | 134 | 9.0 | 17.0 | 0.00 | 0.00 | 0.00 | 52 | 1012.8 |
| 20260830165540 | 92 | 227 | 6.0 | 13.0 | 0.00 | 0.00 | 0.00 | 55 | 1012.9 |
| 20260830165038 | 91 | 154 | 5.0 | 15.0 | 0.00 | 0.00 | 0.00 | 56 | 1012.9 |
| 20260830164539 | 89 | 234 | 6.0 | 15.0 | 0.00 | 0.00 | 0.00 | 57 | 1012.9 |
| 20260830164039 | 89 | 219 | 5.0 | 14.0 | 0.00 | 0.00 | 0.00 | 57 | 1013.0 |
| 20260830163538 | 88 | 226 | 6.0 | 16.0 | 0.00 | 0.00 | 0.00 | 60 | 1013.0 |
| 20260830163038 | 89 | 227 | 6.0 | 16.0 | 0.00 | 0.00 | 0.00 | 57 | 1013.1 |
| 20260830162537 | 89 | 178 | 6.0 | 16.0 | 0.00 | 0.00 | 0.00 | 57 | 1013.0 |
| 20260830161038 | 88 | 176 | 8.0 | 16.0 | 0.00 | 0.00 | 0.00 | 56 | 1012.9 |
| 20260830160039 | 87 | 199 | 8.0 | 17.0 | 0.00 | 0.00 | 0.00 | 59 | 1012.8 |
| 20260830155537 | 86 | 213 | 8.0 | 21.0 | 0.00 | 0.00 | 0.00 | 59 | 1012.7 |
| 20260830155037 | 86 | 159 | 8.0 | 21.0 | 0.00 | 0.00 | 0.00 | 60 | 1012.8 |
| 20260830154037 | 86 | 204 | 6.0 | 15.0 | 0.00 | 0.00 | 0.00 | 61 | 1012.8 |
| 20260830153538 | 85 | 214 | 7.0 | 18.0 | 0.00 | 0.00 | 0.00 | 62 | 1012.8 |
| 20260830153037 | 84 | 195 | 11.0 | 18.0 | 0.00 | 0.00 | 0.00 | 59 | 1012.6 |
| 20260830152537 | 84 | 226 | 9.0 | 18.0 | 0.00 | 0.00 | 0.00 | 61 | 1012.5 |
| 20260830152037 | 83 | 210 | 6.0 | 15.0 | 0.00 | 0.00 | 0.00 | 62 | 1012.6 |
| 20260830151537 | 83 | 212 | 8.0 | 18.0 | 0.00 | 0.00 | 0.00 | 61 | 1012.6 |
| 20260830150536 | 83 | 223 | 7.0 | 18.0 | 0.00 | 0.00 | 0.00 | 61 | 1012.5 |
| 20260830150037 | 83 | 169 | 9.0 | 18.0 | 0.00 | 0.00 | 0.00 | 62 | 1012.5 |
| 20260830145536 | 83 | 120 | 8.0 | 19.0 | 0.00 | 0.00 | 0.00 | 62 | 1012.5 |
| 20260830145036 | 83 | 166 | 8.0 | 19.0 | 0.00 | 0.00 | 0.00 | 62 | 1012.6 |
| 20260830144537 | 83 | 192 | 8.0 | 15.0 | 0.00 | 0.00 | 0.00 | 62 | 1012.6 |
| 20260830144035 | 83 | 298 | 6.0 | 16.0 | 0.00 | 0.00 | 0.00 | 62 | 1012.5 |
| 20260830143535 | 83 | 199 | 6.0 | 16.0 | 0.00 | 0.00 | 0.00 | 63 | 1012.6 |
| 20260830143035 | 83 | 221 | 7.0 | 15.0 | 0.00 | 0.00 | 0.00 | 62 | 1012.6 |
| 20260830142535 | 83 | 165 | 6.0 | 17.0 | 0.00 | 0.00 | 0.00 | 63 | 1012.7 |
| 20260830142034 | 82 | 213 | 7.0 | 17.0 | 0.00 | 0.00 | 0.00 | 63 | 1012.7 |
| 20260830141536 | 83 | 162 | 7.0 | 19.0 | 0.00 | 0.00 | 0.00 | 62 | 1012.8 |
| 20260830141036 | 82 | 179 | 10.0 | 19.0 | 0.00 | 0.00 | 0.00 | 62 | 1012.7 |
| 20260830140535 | 82 | 185 | 7.0 | 19.0 | 0.00 | 0.00 | 0.00 | 63 | 1012.8 |
| 20260830140036 | 82 | 199 | 5.0 | 18.0 | 0.00 | 0.00 | 0.00 | 65 | 1012.8 |
| 20260830135535 | 82 | 180 | 8.0 | 18.0 | 0.00 | 0.00 | 0.00 | 64 | 1012.9 |
| 20260830135035 | 81 | 226 | 6.0 | 16.0 | 0.00 | 0.00 | 0.00 | 65 | 1013.0 |
| 20260830134534 | 80 | 200 | 7.0 | 16.0 | 0.00 | 0.00 | 0.00 | 65 | 1013.0 |
| 20260830134034 | 80 | 195 | 5.0 | 19.0 | 0.00 | 0.00 | 0.00 | 66 | 1013.0 |
| 20260830133535 | 79 | 207 | 7.0 | 19.0 | 0.00 | 0.00 | 0.00 | 66 | 1013.0 |
| 20260830133035 | 79 | 162 | 5.0 | 12.0 | 0.00 | 0.00 | 0.00 | 67 | 1013.0 |
| 20260830132534 | 78 | 190 | 6.0 | 13.0 | 0.00 | 0.00 | 0.00 | 67 | 1013.1 |
| 20260830131535 | 78 | 197 | 7.0 | 13.0 | 0.00 | 0.00 | 0.00 | 68 | 1013.1 |
| 20260830131034 | 77 | 183 | 5.0 | 11.0 | 0.00 | 0.00 | 0.00 | 69 | 1013.1 |
| 20260830130534 | 76 | 219 | 5.0 | 10.0 | 0.00 | 0.00 | 0.00 | 70 | 1013.2 |
| 20260830130034 | 76 | 169 | 5.0 | 10.0 | 0.00 | 0.00 | 0.00 | 70 | 1013.3 |
| 20260830125533 | 75 | 183 | 5.0 | 11.0 | 0.00 | 0.00 | 0.00 | 71 | 1013.3 |
| 20260830125033 | 75 | 147 | 5.0 | 11.0 | 0.00 | 0.00 | 0.00 | 71 | 1013.4 |
| 20260830124533 | 75 | 193 | 4.0 | 11.0 | 0.00 | 0.00 | 0.00 | 72 | 1013.3 |
| 20260830124034 | 74 | 171 | 5.0 | 10.0 | 0.00 | 0.00 | 0.00 | 73 | 1013.3 |
| 20260830123533 | 74 | 176 | 5.0 | 10.0 | 0.00 | 0.00 | 0.00 | 72 | 1013.3 |
| 20260830122533 | 74 | 158 | 6.0 | 11.0 | 0.00 | 0.00 | 0.00 | 72 | 1013.2 |
| 20260830122033 | 73 | 192 | 3.0 | 9.0 | 0.00 | 0.00 | 0.00 | 73 | 1013.3 |
| 20260830120532 | 73 | 135 | 4.0 | 9.0 | 0.00 | 0.00 | 0.00 | 74 | 1013.3 |
| 20260830120032 | 72 | 185 | 4.0 | 9.0 | 0.00 | 0.00 | 0.00 | 74 | 1013.4 |
| 20260830115532 | 73 | 223 | 4.0 | 9.0 | 0.00 | 0.00 | 0.00 | 74 | 1013.3 |
| 20260830115032 | 72 | 166 | 3.0 | 9.0 | 0.00 | 0.00 | 0.00 | 74 | 1013.2 |
| 20260830114031 | 72 | 166 | 3.0 | 5.0 | 0.00 | 0.00 | 0.00 | 74 | 1013.2 |
| 20260830113531 | 72 | 164 | 3.0 | 6.0 | 0.00 | 0.00 | 0.00 | 74 | 1013.2 |
| 20260830113030 | 72 | 185 | 1.0 | 6.0 | 0.00 | 0.00 | 0.00 | 75 | 1013.2 |
| 20260830112531 | 72 | 171 | 3.0 | 6.0 | 0.00 | 0.00 | 0.00 | 74 | 1013.1 |
| 20260830112032 | 72 | 178 | 2.0 | 6.0 | 0.00 | 0.00 | 0.00 | 73 | 1013.1 |
| 20260830111531 | 73 | 145 | 2.0 | 6.0 | 0.00 | 0.00 | 0.00 | 72 | 1013.2 |
| 20260830111031 | 74 | 164 | 2.0 | 6.0 | 0.00 | 0.00 | 0.00 | 72 | 1013.2 |
| 20260830110531 | 74 | 180 | 3.0 | 9.0 | 0.00 | 0.00 | 0.00 | 70 | 1013.2 |
| 20260830110030 | 75 | 192 | 3.0 | 10.0 | 0.00 | 0.00 | 0.00 | 68 | 1013.2 |
| 20260830105530 | 75 | 178 | 4.0 | 10.0 | 0.00 | 0.00 | 0.00 | 68 | 1013.2 |
| 20260830105029 | 75 | 212 | 4.0 | 10.0 | 0.00 | 0.00 | 0.00 | 68 | 1013.1 |
| 20260830104531 | 75 | 165 | 3.0 | 10.0 | 0.00 | 0.00 | 0.00 | 68 | 1013.1 |
| 20260830103530 | 75 | 166 | 5.0 | 10.0 | 0.00 | 0.00 | 0.00 | 68 | 1013.1 |
| 20260830103030 | 75 | 183 | 5.0 | 9.0 | 0.00 | 0.00 | 0.00 | 68 | 1013.2 |
| 20260830102531 | 75 | 155 | 5.0 | 10.0 | 0.00 | 0.00 | 0.00 | 67 | 1013.1 |
| 20260830102030 | 75 | 178 | 4.0 | 10.0 | 0.00 | 0.00 | 0.00 | 68 | 1013.0 |
| 20260830101530 | 75 | 193 | 4.0 | 10.0 | 0.00 | 0.00 | 0.00 | 69 | 1012.9 |
| 20260830101029 | 75 | 162 | 4.0 | 7.0 | 0.00 | 0.00 | 0.00 | 69 | 1012.9 |
| 20260830100530 | 74 | 186 | 4.0 | 7.0 | 0.00 | 0.00 | 0.00 | 70 | 1013.0 |
| 20260830100030 | 74 | 195 | 3.0 | 9.0 | 0.00 | 0.00 | 0.00 | 70 | 1013.0 |
| 20260830095530 | 74 | 158 | 5.0 | 9.0 | 0.00 | 0.00 | 0.00 | 70 | 1013.1 |
| 20260830094529 | 73 | 137 | 4.0 | 6.0 | 0.00 | 0.00 | 0.00 | 73 | 1013.0 |
| 20260830094028 | 73 | 172 | 3.0 | 7.0 | 0.00 | 0.00 | 0.00 | 73 | 1013.1 |
| 20260830093528 | 73 | 230 | 3.0 | 9.0 | 0.00 | 0.00 | 0.00 | 74 | 1012.9 |
| 20260830093027 | 73 | 159 | 3.0 | 9.0 | 0.00 | 0.00 | 0.00 | 75 | 1012.8 |
| 20260830092529 | 72 | 189 | 3.0 | 6.0 | 0.00 | 0.00 | 0.00 | 77 | 1012.8 |
| 20260830092029 | 72 | 169 | 3.0 | 9.0 | 0.00 | 0.00 | 0.00 | 78 | 1012.8 |
| 20260830091528 | 72 | 155 | 2.0 | 9.0 | 0.00 | 0.00 | 0.00 | 78 | 1012.9 |
| 20260830091028 | 70 | 151 | 2.0 | 5.0 | 0.00 | 0.00 | 0.00 | 80 | 1012.9 |
| 20260830090528 | 70 | 144 | 2.0 | 4.0 | 0.00 | 0.00 | 0.00 | 82 | 1012.9 |
| 20260830090028 | 69 | 164 | 2.0 | 3.0 | 0.00 | 0.00 | 0.00 | 83 | 1013.0 |
| 20260830085528 | 69 | 154 | 1.0 | 4.0 | 0.00 | 0.00 | 0.00 | 84 | 1012.9 |
| 20260830085027 | 68 | 172 | 2.0 | 4.0 | 0.00 | 0.00 | 0.00 | 87 | 1012.9 |
| 20260830084527 | 67 | 162 | 1.0 | 3.0 | 0.00 | 0.00 | 0.00 | 88 | 1012.8 |
| 20260830084028 | 67 | 168 | 0.0 | 2.0 | 0.00 | 0.00 | 0.00 | 88 | 1012.8 |
| 20260830083528 | 67 | 142 | 0.0 | 1.0 | 0.00 | 0.00 | 0.00 | 89 | 1012.7 |
| 20260830083027 | 67 | 142 | 0.0 | 1.0 | 0.00 | 0.00 | 0.00 | 89 | 1012.8 |
| 20260830082027 | 67 | 142 | 0.0 | 1.0 | 0.00 | 0.00 | 0.00 | 89 | 1012.7 |
| 20260830081527 | 67 | 142 | 0.0 | 1.0 | 0.00 | 0.00 | 0.00 | 88 | 1012.8 |
| 20260830081027 | 67 | 142 | 0.0 | 1.0 | 0.00 | 0.00 | 0.00 | 89 | 1012.7 |
| 20260830080526 | 67 | 145 | 0.0 | 1.0 | 0.00 | 0.00 | 0.00 | 87 | 1012.7 |
| 20260830080027 | 67 | 145 | 0.0 | 1.0 | 0.00 | 0.00 | 0.00 | 88 | 1012.7 |
| 20260830075526 | 67 | 145 | 0.0 | 1.0 | 0.00 | 0.00 | 0.00 | 88 | 1012.6 |
| 20260830075026 | 67 | 145 | 0.0 | 2.0 | 0.00 | 0.00 | 0.00 | 88 | 1012.8 |
| 20260830074026 | 67 | 148 | 0.0 | 2.0 | 0.00 | 0.00 | 0.00 | 89 | 1012.7 |
| 20260830073526 | 67 | 124 | 0.0 | 2.0 | 0.00 | 0.00 | 0.00 | 89 | 1012.6 |
| 20260830073026 | 67 | 176 | 0.0 | 1.0 | 0.00 | 0.00 | 0.00 | 89 | 1012.7 |
| 20260830072025 | 68 | 176 | 0.0 | 0.0 | 0.00 | 0.00 | 0.00 | 88 | 1012.6 |
| 20260830071525 | 68 | 176 | 0.0 | 0.0 | 0.00 | 0.00 | 0.00 | 88 | 1012.6 |
| 20260830071025 | 68 | 176 | 0.0 | 0.0 | 0.00 | 0.00 | 0.00 | 88 | 1012.7 |
| 20260830070025 | 68 | 176 | 0.0 | 1.0 | 0.00 | 0.00 | 0.00 | 88 | 1012.6 |
| 20260830065025 | 68 | 166 | 0.0 | 0.0 | 0.00 | 0.00 | 0.00 | 88 | 1012.7 |
| 20260830064524 | 69 | 166 | 0.0 | 1.0 | 0.00 | 0.00 | 0.00 | 88 | 1012.8 |
| 20260830064024 | 69 | 166 | 0.0 | 2.0 | 0.00 | 0.00 | 0.00 | 88 | 1012.8 |
| 20260830063524 | 69 | 166 | 0.0 | 2.0 | 0.00 | 0.00 | 0.00 | 87 | 1012.7 |
| 20260830062525 | 69 | 159 | 0.0 | 2.0 | 0.00 | 0.00 | 0.00 | 88 | 1012.7 |
| 20260830062024 | 69 | 164 | 0.0 | 2.0 | 0.00 | 0.00 | 0.00 | 88 | 1012.7 |
| 20260830061524 | 69 | 164 | 0.0 | 1.0 | 0.00 | 0.00 | 0.00 | 88 | 1012.7 |
| 20260830061024 | 69 | 164 | 0.0 | 1.0 | 0.00 | 0.00 | 0.00 | 87 | 1012.7 |
| 20260830060524 | 69 | 164 | 0.0 | 1.0 | 0.00 | 0.00 | 0.00 | 87 | 1012.8 |
| 20260830060025 | 69 | 164 | 0.0 | 1.0 | 0.00 | 0.00 | 0.00 | 86 | 1012.9 |
| 20260830055523 | 69 | 207 | 0.0 | 1.0 | 0.00 | 0.00 | 0.00 | 87 | 1012.8 |
| 20260830055023 | 69 | 207 | 0.0 | 2.0 | 0.00 | 0.00 | 0.00 | 87 | 1012.8 |